Time,TemperatureF,DewpointF,PressureIn,WindDirection,WindDirectionDegrees,WindSpeedMPH,WindSpeedGustMPH,Humidity,HourlyPrecipIn,Conditions,Clouds,dailyrainin,SoftwareType,DateUTC
2013-01-13 00:02:00,37.0,33.0,29.95,East,83,2.0,7.0,84,0.00,,,0.08,,2013-01-13 00:02:00,
2013-01-13 00:12:00,37.0,33.0,29.95,East,83,2.0,7.0,84,0.00,,,0.08,,2013-01-13 00:12:00,
2013-01-13 00:22:00,37.0,33.0,29.95,East,83,2.0,7.0,84,0.00,,,0.08,,2013-01-13 00:22:00,
2013-01-13 00:32:00,37.0,33.0,29.95,ENE,70,2.0,8.0,84,0.00,,,0.08,,2013-01-13 00:32:00,
2013-01-13 00:42:00,37.0,33.0,29.95,ENE,70,2.0,8.0,84,0.00,,,0.08,,2013-01-13 00:42:00,
2013-01-13 00:53:00,37.0,33.0,29.96,ENE,74,2.0,7.0,84,0.00,,,0.08,,2013-01-13 00:53:00,
2013-01-13 01:02:00,37.0,33.0,29.96,East,80,2.0,8.0,84,0.00,,,0.08,,2013-01-13 01:02:00,
2013-01-13 01:12:00,37.0,33.0,29.96,East,80,2.0,8.0,84,0.00,,,0.08,,2013-01-13 01:12:00,
2013-01-13 01:22:00,37.0,33.0,29.96,East,80,2.0,8.0,84,0.00,,,0.08,,2013-01-13 01:22:00,
2013-01-13 01:32:00,37.0,33.0,29.96,East,83,2.0,8.0,84,0.00,,,0.08,,2013-01-13 01:32:00,
2013-01-13 01:42:00,37.0,33.0,29.96,East,83,2.0,8.0,84,0.00,,,0.08,,2013-01-13 01:42:00,
2013-01-13 01:53:00,37.0,32.0,29.97,East,91,2.0,7.0,83,0.00,,,0.08,,2013-01-13 01:53:00,
2013-01-13 02:02:00,37.0,32.0,29.97,East,91,2.0,7.0,83,0.00,,,0.08,,2013-01-13 02:02:00,
2013-01-13 02:12:00,37.0,32.0,29.97,East,91,2.0,7.0,83,0.00,,,0.08,,2013-01-13 02:12:00,
2013-01-13 02:22:00,36.0,31.0,29.98,East,82,4.0,11.0,83,0.00,,,0.08,,2013-01-13 02:22:00,
2013-01-13 02:32:00,36.0,31.0,29.99,East,89,3.0,8.0,83,0.00,,,0.08,,2013-01-13 02:32:00,
2013-01-13 02:42:00,36.0,31.0,29.99,East,89,3.0,8.0,83,0.00,,,0.08,,2013-01-13 02:42:00,
2013-01-13 02:52:00,36.0,31.0,29.99,East,83,3.0,10.0,82,0.00,,,0.08,,2013-01-13 02:52:00,
2013-01-13 03:02:00,36.0,31.0,29.99,East,83,3.0,10.0,82,0.00,,,0.08,,2013-01-13 03:02:00,
2013-01-13 03:11:00,36.0,31.0,29.99,East,83,3.0,10.0,82,0.00,,,0.08,,2013-01-13 03:11:00,
2013-01-13 03:22:00,36.0,31.0,29.99,East,79,3.0,9.0,82,0.00,,,0.08,,2013-01-13 03:22:00,
2013-01-13 03:32:00,36.0,31.0,29.99,ENE,78,2.0,8.0,81,0.00,,,0.08,,2013-01-13 03:32:00,
2013-01-13 03:42:00,36.0,31.0,29.99,ENE,78,2.0,8.0,81,0.00,,,0.08,,2013-01-13 03:42:00,
2013-01-13 03:52:00,36.0,31.0,29.99,ENE,78,2.0,8.0,81,0.00,,,0.08,,2013-01-13 03:52:00,
2013-01-13 04:02:00,36.0,31.0,29.99,ENE,72,2.0,11.0,81,0.00,,,0.08,,2013-01-13 04:02:00,
2013-01-13 04:12:00,36.0,31.0,29.99,ENE,72,2.0,11.0,81,0.00,,,0.08,,2013-01-13 04:12:00,
2013-01-13 04:22:00,36.0,30.0,30.00,East,79,3.0,9.0,80,0.00,,,0.08,,2013-01-13 04:22:00,
2013-01-13 04:32:00,36.0,30.0,30.00,East,93,3.0,10.0,80,0.00,,,0.08,,2013-01-13 04:32:00,
2013-01-13 04:42:00,36.0,30.0,30.00,East,93,3.0,10.0,80,0.00,,,0.08,,2013-01-13 04:42:00,
2013-01-13 04:52:00,36.0,30.0,30.00,East,93,3.0,10.0,80,0.00,,,0.08,,2013-01-13 04:52:00,
2013-01-13 05:03:00,35.0,29.0,30.00,ENE,73,2.0,9.0,80,0.00,,,0.08,,2013-01-13 05:03:00,
2013-01-13 05:12:00,35.0,29.0,30.00,ENE,73,2.0,9.0,80,0.00,,,0.08,,2013-01-13 05:12:00,
2013-01-13 05:22:00,35.0,29.0,30.01,East,85,3.0,9.0,80,0.00,,,0.08,,2013-01-13 05:22:00,
2013-01-13 05:32:00,35.0,29.0,30.01,East,85,3.0,9.0,80,0.00,,,0.08,,2013-01-13 05:32:00,
2013-01-13 05:42:00,35.0,29.0,30.01,East,85,3.0,9.0,80,0.00,,,0.08,,2013-01-13 05:42:00,
2013-01-13 05:52:00,35.0,29.0,30.02,East,80,3.0,7.0,80,0.00,,,0.07,,2013-01-13 05:52:00,
2013-01-13 06:02:00,35.0,29.0,30.02,East,85,2.0,7.0,80,0.00,,,0.07,,2013-01-13 06:02:00,
2013-01-13 06:12:00,34.0,28.0,30.03,East,88,2.0,8.0,79,0.00,,,0.06,,2013-01-13 06:12:00,
2013-01-13 06:22:00,34.0,28.0,30.03,East,88,2.0,8.0,79,0.00,,,0.06,,2013-01-13 06:22:00,
2013-01-13 06:32:00,34.0,28.0,30.03,East,88,2.0,8.0,79,0.00,,,0.06,,2013-01-13 06:32:00,
2013-01-13 06:42:00,34.0,28.0,30.03,East,88,2.0,8.0,79,0.00,,,0.06,,2013-01-13 06:42:00,
2013-01-13 06:52:00,35.0,29.0,30.04,East,91,2.0,6.0,78,0.00,,,0.04,,2013-01-13 06:52:00,
2013-01-13 07:02:00,35.0,29.0,30.04,East,90,1.0,4.0,77,0.00,,,0.02,,2013-01-13 07:02:00,
2013-01-13 07:12:00,35.0,29.0,30.04,East,90,1.0,4.0,77,0.00,,,0.02,,2013-01-13 07:12:00,
2013-01-13 07:22:00,35.0,29.0,30.04,East,90,1.0,4.0,77,0.00,,,0.02,,2013-01-13 07:22:00,
2013-01-13 07:32:00,35.0,29.0,30.04,East,90,1.0,4.0,77,0.00,,,0.02,,2013-01-13 07:32:00,
2013-01-13 07:42:00,35.0,29.0,30.04,East,90,1.0,4.0,77,0.00,,,0.02,,2013-01-13 07:42:00,
2013-01-13 07:52:00,32.0,27.0,30.06,North,0,0.0,3.0,83,0.00,,,0.00,,2013-01-13 07:52:00,
2013-01-13 08:02:00,32.0,27.0,30.06,North,0,0.0,3.0,83,0.00,,,0.00,,2013-01-13 08:02:00,
2013-01-13 08:11:00,32.0,27.0,30.06,North,0,0.0,3.0,83,0.00,,,0.00,,2013-01-13 08:11:00,
2013-01-13 08:22:00,31.0,27.0,30.06,SE,136,1.0,6.0,84,0.00,,,0.00,,2013-01-13 08:22:00,
2013-01-13 08:32:00,31.0,27.0,30.06,SE,136,1.0,6.0,84,0.00,,,0.00,,2013-01-13 08:32:00,
2013-01-13 08:42:00,31.0,27.0,30.06,SE,136,1.0,6.0,84,0.00,,,0.00,,2013-01-13 08:42:00,
2013-01-13 08:52:00,31.0,27.0,30.08,North,0,0.0,2.0,86,0.00,,,0.00,,2013-01-13 08:52:00,
2013-01-13 09:02:00,31.0,28.0,30.08,North,0,0.0,4.0,87,0.00,,,0.00,,2013-01-13 09:02:00,
2013-01-13 09:12:00,31.0,28.0,30.08,North,0,0.0,4.0,87,0.00,,,0.00,,2013-01-13 09:12:00,
2013-01-13 09:22:00,31.0,28.0,30.08,North,0,0.0,4.0,87,0.00,,,0.00,,2013-01-13 09:22:00,
2013-01-13 09:32:00,31.0,28.0,30.09,North,0,0.0,4.0,87,0.00,,,0.00,,2013-01-13 09:32:00,
2013-01-13 09:42:00,31.0,28.0,30.09,North,0,0.0,4.0,87,0.00,,,0.00,,2013-01-13 09:42:00,
2013-01-13 09:52:00,31.0,28.0,30.09,North,0,0.0,2.0,87,0.00,,,0.00,,2013-01-13 09:52:00,
2013-01-13 10:02:00,33.0,29.0,30.09,WNW,287,1.0,4.0,85,0.00,,,0.00,,2013-01-13 10:02:00,
2013-01-13 10:11:00,33.0,29.0,30.09,WNW,287,1.0,4.0,85,0.00,,,0.00,,2013-01-13 10:11:00,
2013-01-13 10:22:00,33.0,29.0,30.09,WNW,287,1.0,4.0,85,0.00,,,0.00,,2013-01-13 10:22:00,
2013-01-13 10:32:00,34.0,29.0,30.10,SSW,205,1.0,4.0,83,0.00,,,0.00,,2013-01-13 10:32:00,
2013-01-13 10:42:00,34.0,29.0,30.10,SSW,205,1.0,4.0,83,0.00,,,0.00,,2013-01-13 10:42:00,
2013-01-13 10:52:00,35.0,30.0,30.10,West,269,1.0,7.0,81,0.00,,,0.00,,2013-01-13 10:52:00,
2013-01-13 11:02:00,35.0,30.0,30.10,West,269,1.0,7.0,81,0.00,,,0.00,,2013-01-13 11:02:00,
2013-01-13 11:12:00,35.0,30.0,30.10,West,269,1.0,7.0,81,0.00,,,0.00,,2013-01-13 11:12:00,
2013-01-13 11:22:00,35.0,30.0,30.11,NE,40,2.0,8.0,81,0.00,,,0.00,,2013-01-13 11:22:00,
2013-01-13 11:32:00,35.0,30.0,30.10,SSE,151,1.0,5.0,81,0.00,,,0.00,,2013-01-13 11:32:00,
2013-01-13 11:42:00,35.0,30.0,30.10,SSE,151,1.0,5.0,81,0.00,,,0.00,,2013-01-13 11:42:00,
2013-01-13 11:52:00,37.0,31.0,30.10,WNW,293,2.0,7.0,78,0.00,,,0.00,,2013-01-13 11:52:00,
2013-01-13 12:02:00,37.0,31.0,30.10,WNW,293,2.0,7.0,78,0.00,,,0.00,,2013-01-13 12:02:00,
2013-01-13 12:11:00,37.0,31.0,30.10,WNW,293,2.0,7.0,78,0.00,,,0.00,,2013-01-13 12:11:00,
2013-01-13 12:22:00,36.0,30.0,30.10,WNW,300,1.0,4.0,80,0.00,,,0.00,,2013-01-13 12:22:00,
2013-01-13 12:32:00,36.0,31.0,30.10,WNW,301,1.0,6.0,81,0.00,,,0.00,,2013-01-13 12:32:00,
2013-01-13 12:42:00,36.0,31.0,30.10,WNW,301,1.0,6.0,81,0.00,,,0.00,,2013-01-13 12:42:00,
2013-01-13 12:52:00,36.0,31.0,30.10,WNW,301,1.0,6.0,81,0.00,,,0.00,,2013-01-13 12:52:00,
2013-01-13 13:02:00,35.0,30.0,30.10,WNW,298,1.0,4.0,82,0.00,,,0.00,,2013-01-13 13:02:00,
2013-01-13 13:11:00,35.0,30.0,30.10,WNW,298,1.0,4.0,82,0.00,,,0.00,,2013-01-13 13:11:00,
2013-01-13 13:22:00,36.0,31.0,30.10,North,0,0.0,3.0,83,0.00,,,0.00,,2013-01-13 13:22:00,
2013-01-13 13:32:00,36.0,31.0,30.10,North,0,0.0,3.0,83,0.00,,,0.00,,2013-01-13 13:32:00,
2013-01-13 13:42:00,36.0,31.0,30.10,North,0,0.0,3.0,83,0.00,,,0.00,,2013-01-13 13:42:00,
2013-01-13 13:52:00,36.0,31.0,30.10,North,0,0.0,3.0,83,0.00,,,0.00,,2013-01-13 13:52:00,
2013-01-13 14:02:00,36.0,31.0,30.10,NW,321,1.0,5.0,82,0.00,,,0.00,,2013-01-13 14:02:00,
2013-01-13 14:12:00,36.0,31.0,30.10,NW,321,1.0,5.0,82,0.00,,,0.00,,2013-01-13 14:12:00,
2013-01-13 14:22:00,36.0,31.0,30.10,SSE,152,1.0,3.0,82,0.00,,,0.00,,2013-01-13 14:22:00,
2013-01-13 14:33:00,36.0,31.0,30.10,SSE,152,1.0,3.0,82,0.00,,,0.00,,2013-01-13 14:33:00,
2013-01-13 14:43:00,36.0,31.0,30.10,SSE,152,1.0,3.0,82,0.00,,,0.00,,2013-01-13 14:43:00,
2013-01-13 14:53:00,36.0,31.0,30.10,NW,317,2.0,5.0,82,0.00,,,0.00,,2013-01-13 14:53:00,
2013-01-13 15:02:00,35.0,31.0,30.10,WNW,299,1.0,4.0,84,0.00,,,0.00,,2013-01-13 15:02:00,
2013-01-13 15:12:00,35.0,31.0,30.10,WNW,299,1.0,4.0,84,0.00,,,0.00,,2013-01-13 15:12:00,
2013-01-13 15:22:00,35.0,31.0,30.11,NW,315,1.0,4.0,84,0.00,,,0.00,,2013-01-13 15:22:00,
2013-01-13 15:33:00,35.0,31.0,30.11,NW,315,1.0,4.0,84,0.00,,,0.00,,2013-01-13 15:33:00,
2013-01-13 15:42:00,35.0,31.0,30.11,NW,315,1.0,4.0,84,0.00,,,0.00,,2013-01-13 15:42:00,
2013-01-13 15:52:00,35.0,30.0,30.11,NW,317,1.0,6.0,83,0.00,,,0.00,,2013-01-13 15:52:00,
2013-01-13 16:02:00,35.0,30.0,30.11,North,0,0.0,4.0,83,0.00,,,0.00,,2013-01-13 16:02:00,
2013-01-13 16:12:00,35.0,30.0,30.11,North,0,0.0,4.0,83,0.00,,,0.00,,2013-01-13 16:12:00,
2013-01-13 16:22:00,35.0,30.0,30.11,North,0,0.0,4.0,83,0.00,,,0.00,,2013-01-13 16:22:00,
2013-01-13 16:33:00,35.0,31.0,30.12,NW,319,1.0,5.0,84,0.00,,,0.00,,2013-01-13 16:33:00,
2013-01-13 16:42:00,35.0,31.0,30.12,NW,319,1.0,5.0,84,0.00,,,0.00,,2013-01-13 16:42:00,
2013-01-13 16:53:00,35.0,30.0,30.12,North,0,0.0,2.0,83,0.00,,,0.00,,2013-01-13 16:53:00,
2013-01-13 17:02:00,34.0,30.0,30.13,North,0,0.0,3.0,84,0.00,,,0.00,,2013-01-13 17:02:00,
2013-01-13 17:12:00,34.0,30.0,30.13,North,0,0.0,3.0,84,0.00,,,0.00,,2013-01-13 17:12:00,
2013-01-13 17:22:00,34.0,30.0,30.13,North,0,0.0,3.0,84,0.00,,,0.00,,2013-01-13 17:22:00,
2013-01-13 17:33:00,34.0,29.0,30.13,North,0,0.0,1.0,83,0.00,,,0.00,,2013-01-13 17:33:00,
2013-01-13 17:42:00,34.0,29.0,30.13,North,0,0.0,1.0,83,0.00,,,0.00,,2013-01-13 17:42:00,
2013-01-13 17:53:00,34.0,29.0,30.12,North,0,0.0,3.0,82,0.00,,,0.00,,2013-01-13 17:53:00,
2013-01-13 18:02:00,34.0,29.0,30.12,North,0,0.0,3.0,82,0.00,,,0.00,,2013-01-13 18:02:00,
2013-01-13 18:12:00,34.0,29.0,30.12,North,0,0.0,3.0,82,0.00,,,0.00,,2013-01-13 18:12:00,
2013-01-13 18:22:00,34.0,29.0,30.12,North,0,0.0,2.0,81,0.00,,,0.00,,2013-01-13 18:22:00,
2013-01-13 18:32:00,33.0,28.0,30.13,North,0,0.0,1.0,83,0.00,,,0.00,,2013-01-13 18:32:00,
2013-01-13 18:42:00,33.0,28.0,30.13,North,0,0.0,1.0,83,0.00,,,0.00,,2013-01-13 18:42:00,
2013-01-13 18:52:00,33.0,29.0,30.13,North,0,0.0,1.0,85,0.00,,,0.00,,2013-01-13 18:52:00,
2013-01-13 19:02:00,33.0,29.0,30.13,North,0,0.0,1.0,85,0.00,,,0.00,,2013-01-13 19:02:00,
2013-01-13 19:11:00,33.0,29.0,30.13,North,0,0.0,1.0,85,0.00,,,0.00,,2013-01-13 19:11:00,
2013-01-13 19:22:00,33.0,29.0,30.13,North,0,0.0,2.0,85,0.00,,,0.00,,2013-01-13 19:22:00,
2013-01-13 19:32:00,33.0,29.0,30.13,North,0,0.0,1.0,84,0.00,,,0.00,,2013-01-13 19:32:00,
2013-01-13 19:42:00,33.0,29.0,30.13,North,0,0.0,1.0,84,0.00,,,0.00,,2013-01-13 19:42:00,
2013-01-13 19:52:00,33.0,29.0,30.13,North,0,0.0,1.0,84,0.00,,,0.00,,2013-01-13 19:52:00,
2013-01-13 20:02:00,33.0,29.0,30.13,North,0,0.0,1.0,84,0.00,,,0.00,,2013-01-13 20:02:00,
2013-01-13 20:11:00,33.0,29.0,30.13,North,0,0.0,1.0,84,0.00,,,0.00,,2013-01-13 20:11:00,
2013-01-13 20:22:00,33.0,28.0,30.13,North,0,0.0,1.0,83,0.00,,,0.00,,2013-01-13 20:22:00,
2013-01-13 20:32:00,33.0,28.0,30.12,North,0,0.0,1.0,83,0.00,,,0.00,,2013-01-13 20:32:00,
2013-01-13 20:43:00,33.0,28.0,30.12,North,0,0.0,1.0,83,0.00,,,0.00,,2013-01-13 20:43:00,
2013-01-13 20:52:00,33.0,28.0,30.12,North,0,0.0,1.0,83,0.00,,,0.00,,2013-01-13 20:52:00,
2013-01-13 21:02:00,33.0,28.0,30.12,North,0,0.0,2.0,83,0.00,,,0.00,,2013-01-13 21:02:00,
2013-01-13 21:12:00,33.0,28.0,30.12,North,0,0.0,2.0,83,0.00,,,0.00,,2013-01-13 21:12:00,
2013-01-13 21:23:00,33.0,28.0,30.12,North,0,0.0,1.0,83,0.00,,,0.00,,2013-01-13 21:23:00,
2013-01-13 21:32:00,33.0,28.0,30.12,North,0,0.0,1.0,83,0.00,,,0.00,,2013-01-13 21:32:00,
2013-01-13 21:43:00,33.0,28.0,30.12,North,0,0.0,1.0,83,0.00,,,0.00,,2013-01-13 21:43:00,
2013-01-13 21:53:00,33.0,28.0,30.12,North,0,0.0,2.0,83,0.00,,,0.00,,2013-01-13 21:53:00,
2013-01-13 22:02:00,33.0,28.0,30.11,North,0,0.0,2.0,83,0.00,,,0.00,,2013-01-13 22:02:00,
2013-01-13 22:12:00,33.0,28.0,30.11,North,0,0.0,2.0,83,0.00,,,0.00,,2013-01-13 22:12:00,
2013-01-13 22:22:00,32.0,27.0,30.11,North,0,0.0,0.0,83,0.00,,,0.00,,2013-01-13 22:22:00,
2013-01-13 22:33:00,32.0,27.0,30.11,North,0,0.0,0.0,83,0.00,,,0.00,,2013-01-13 22:33:00,
2013-01-13 22:42:00,32.0,27.0,30.11,North,0,0.0,0.0,83,0.00,,,0.00,,2013-01-13 22:42:00,
2013-01-13 22:52:00,32.0,28.0,30.11,North,0,0.0,0.0,84,0.00,,,0.00,,2013-01-13 22:52:00,
2013-01-13 23:02:00,32.0,28.0,30.11,North,0,0.0,0.0,85,0.00,,,0.00,,2013-01-13 23:02:00,
2013-01-13 23:12:00,32.0,28.0,30.11,North,0,0.0,0.0,85,0.00,,,0.00,,2013-01-13 23:12:00,
2013-01-13 23:22:00,32.0,28.0,30.11,North,0,0.0,0.0,85,0.00,,,0.00,,2013-01-13 23:22:00,
2013-01-13 23:32:00,32.0,28.0,30.10,North,0,0.0,1.0,86,0.00,,,0.00,,2013-01-13 23:32:00,
2013-01-13 23:42:00,32.0,28.0,30.10,North,0,0.0,1.0,86,0.00,,,0.00,,2013-01-13 23:42:00,
2013-01-13 23:53:00,32.0,28.0,30.10,North,0,0.0,1.0,85,0.00,,,0.00,,2013-01-13 23:53:00,